Terug naar catalogus

NAOS

ActiefWetenschapSSO
NORAD 65317·PAYLOAD·🇱🇺 Luxembourg

Gelanceerd Aug 26, 2025 vanaf Vandenberg Space Force Base

Loading…

Volgende Passages (komende 24 uur)

TLE

VersSource: Space-Track

Epoch: Sep 14, 2026, 14:55 UTC

1 65317U 25188C   26257.62215745  .00007318  00000-0  19487-3 0  9991
2 65317  97.1961 331.3272 0001271  90.7549 269.3843 15.38480180 59011

Volg NAOS in realtime met AllMySat

Download on the App Store